Weather History for Bainbridge, GA

Change the Weather History Date:

Wednesday, February 6, 2013

  Actual Average (KMAI) Record (KMAI)
Temperature  
Mean Temperature 63 °F 53 °F  
Max Temperature 73 °F 64 °F 77 °F (2008)
Min Temperature 53 °F 42 °F 25 °F (2000)
Degree Days  
Heating Degree Days 2    
Month to date heating degree days  
Since 1 July heating degree days  
Cooling Degree Days 0    
Month to date cooling degree days  
Year to date cooling degree days  
Growing Degree Days 13 (Base 50)    
Moisture  
Dew Point 56 °F    
Average Humidity 83    
Maximum Humidity 100    
Minimum Humidity 53    
Precipitation  
Precipitation 0.00 in 0.17 in 1.75 in (2004)
Month to date precipitation 1.00  
Year to date precipitation 6.04  
Sea Level Pressure  
Sea Level Pressure 30.10 in    
Wind  
Wind Speed 2 mph (ENE)    
Max Wind Speed 9 mph    
Max Gust Speed -    
Visibility 9 miles    
Events      
T = Trace of Precipitation, MM = Missing Value Source: NWS Daily Summary

Daily Weather History Graph

Daily Weather History Graph

Search for Another Location

Airport:

Trip Planner

Search our weather history database for the weather conditions in past years. The results will help you decide how hot, cold, wet, or windy it might be!

Date:

Astronomy

Feb. 06, 2013 Rise Set
Actual Time 7:26 AM EST 6:18 PM EST
Civil Twilight 7:01 AM EST 6:43 PM EST
Nautical Twilight 6:33 AM EST 7:12 PM EST
Astronomical Twilight 6:04 AM EST 7:41 PM EST
Moon 4:02 AM EST (2/6) 2:43 PM EST (2/6)
Length of Visible Light 11h 42m
Length of Day
10h 52m
Waning Crescent, 17% of the Moon is Illuminated
Feb 6
Waning Crescent
Feb 10
New
Feb 17
First Quarter
Feb 25
Full
Mar 4
Last Quarter

Hourly Weather History & Observations

Time (EST) Temp. Dew Point Humidity Pressure Visibility Wind Dir Wind Speed Gust Speed Precip Events Conditions
12:15 AM 59.0 °F 57.2 °F 94% 30.04 in 10.0 mi Calm Calm - N/A   Overcast
12:35 AM 59.0 °F 59.0 °F 100% 30.04 in 10.0 mi East 3.5 mph - N/A   Overcast
12:55 AM 59.0 °F 57.2 °F 94% 30.05 in 10.0 mi Calm Calm - N/A   Overcast
1:15 AM 59.0 °F 59.0 °F 100% 30.05 in 10.0 mi Calm Calm - N/A   Overcast
1:35 AM 59.0 °F 59.0 °F 100% 30.06 in 10.0 mi NNE 3.5 mph - N/A   Overcast
1:55 AM 59.0 °F 57.2 °F 94% 30.06 in 10.0 mi Calm Calm - N/A   Overcast
2:15 AM 57.2 °F 55.4 °F 94% 30.05 in 7.0 mi Calm Calm - N/A   Overcast
2:35 AM 57.2 °F 55.4 °F 94% 30.05 in 3.0 mi Calm Calm - N/A   Overcast
2:55 AM 57.2 °F 55.4 °F 94% 30.05 in 3.0 mi Calm Calm - N/A   Mostly Cloudy
3:15 AM 57.2 °F 55.4 °F 94% 30.06 in 5.0 mi North 3.5 mph - N/A   Mostly Cloudy
3:35 AM 57.2 °F 55.4 °F 94% 30.06 in 5.0 mi Calm Calm - N/A   Mostly Cloudy
3:55 AM 57.2 °F 55.4 °F 94% 30.06 in 5.0 mi Calm Calm - N/A   Overcast
4:15 AM 57.2 °F 55.4 °F 94% 30.06 in 5.0 mi Calm Calm - N/A   Mostly Cloudy
4:35 AM 57.2 °F 55.4 °F 94% 30.07 in 7.0 mi Calm Calm - N/A   Mostly Cloudy
5:15 AM 57.2 °F 55.4 °F 94% 30.08 in 7.0 mi Calm Calm - N/A   Overcast
5:35 AM 57.2 °F 55.4 °F 94% 30.08 in 5.0 mi NNE 3.5 mph - N/A   Mostly Cloudy
5:55 AM 57.2 °F 55.4 °F 94% 30.08 in 7.0 mi Calm Calm - N/A   Mostly Cloudy
6:15 AM 57.2 °F 55.4 °F 94% 30.09 in 5.0 mi NNE 4.6 mph - N/A   Overcast
6:35 AM 57.2 °F 55.4 °F 94% 30.10 in 5.0 mi ENE 3.5 mph - N/A   Mostly Cloudy
6:55 AM 57.2 °F 55.4 °F 94% 30.10 in 7.0 mi North 3.5 mph - N/A   Overcast
7:15 AM 57.2 °F 55.4 °F 94% 30.10 in 7.0 mi NNE 3.5 mph - N/A   Overcast
7:35 AM 57.2 °F 55.4 °F 94% 30.11 in 7.0 mi Calm Calm - N/A   Mostly Cloudy
7:55 AM 57.2 °F 55.4 °F 94% 30.12 in 5.0 mi Calm Calm - N/A   Scattered Clouds
8:15 AM 57.2 °F 55.4 °F 94% 30.14 in 7.0 mi Calm Calm - N/A   Clear
8:35 AM 57.2 °F 55.4 °F 94% 30.14 in 10.0 mi NE 4.6 mph - N/A   Clear
8:55 AM 59.0 °F 55.4 °F 88% 30.15 in 10.0 mi East 4.6 mph - N/A   Scattered Clouds
9:15 AM 57.2 °F 55.4 °F 94% 30.16 in 10.0 mi ENE 5.8 mph - N/A   Mostly Cloudy
9:35 AM 59.0 °F 55.4 °F 88% 30.16 in 10.0 mi East 5.8 mph - N/A   Overcast
9:55 AM 59.0 °F 57.2 °F 94% 30.16 in 10.0 mi East 5.8 mph - N/A   Overcast
10:15 AM 60.8 °F 57.2 °F 88% 30.16 in 10.0 mi East 4.6 mph - N/A   Overcast
10:35 AM 62.6 °F 57.2 °F 82% 30.17 in 10.0 mi ENE 5.8 mph - N/A   Overcast
10:55 AM 62.6 °F 57.2 °F 82% 30.16 in 10.0 mi NE 4.6 mph - N/A   Scattered Clouds
11:15 AM 64.4 °F 57.2 °F 77% 30.15 in 10.0 mi ENE 4.6 mph - N/A   Clear
11:35 AM 68.0 °F 59.0 °F 73% 30.16 in 10.0 mi East 3.5 mph - N/A   Clear
12:15 PM 71.6 °F 60.8 °F 69% 30.15 in 10.0 mi ENE 8.1 mph - N/A   Mostly Cloudy
12:35 PM 71.6 °F 59.0 °F 64% 30.14 in 10.0 mi ENE 9.2 mph - N/A   Mostly Cloudy
12:55 PM 69.8 °F 59.0 °F 68% 30.13 in 10.0 mi NE 5.8 mph - N/A   Mostly Cloudy
1:15 PM 71.6 °F 57.2 °F 60% 30.12 in 10.0 mi NE 6.9 mph - N/A   Scattered Clouds
1:35 PM 71.6 °F 59.0 °F 64% 30.12 in 10.0 mi NNE 6.9 mph - N/A   Mostly Cloudy
1:55 PM 71.6 °F 59.0 °F 64% 30.11 in 10.0 mi NE 5.8 mph - N/A   Mostly Cloudy
2:15 PM 71.6 °F 57.2 °F 60% 30.10 in 10.0 mi ENE 9.2 mph - N/A   Mostly Cloudy
2:55 PM 71.6 °F 55.4 °F 57% 30.10 in 10.0 mi East 4.6 mph - N/A   Mostly Cloudy
3:15 PM 71.6 °F 55.4 °F 57% 30.09 in 10.0 mi East 6.9 mph - N/A   Mostly Cloudy
3:35 PM 73.4 °F 55.4 °F 53% 30.09 in 10.0 mi SE 9.2 mph - N/A   Mostly Cloudy
3:55 PM 73.4 °F 55.4 °F 53% 30.08 in 10.0 mi East 3.5 mph - N/A   Scattered Clouds
4:15 PM 71.6 °F 55.4 °F 57% 30.08 in 10.0 mi SE 4.6 mph - N/A   Scattered Clouds
4:35 PM 71.6 °F 55.4 °F 57% 30.09 in 10.0 mi SE 6.9 mph - N/A   Scattered Clouds
4:55 PM 71.6 °F 55.4 °F 57% 30.08 in 10.0 mi SE 5.8 mph - N/A   Scattered Clouds
5:15 PM 71.6 °F 55.4 °F 57% 30.08 in 10.0 mi SE 8.1 mph - N/A   Clear
5:35 PM 71.6 °F 55.4 °F 57% 30.07 in 10.0 mi ESE 8.1 mph - N/A   Clear
5:55 PM 69.8 °F 55.4 °F 60% 30.07 in 10.0 mi SE 4.6 mph - N/A   Clear
6:15 PM 68.0 °F 53.6 °F 60% 30.07 in 10.0 mi ESE 4.6 mph - N/A   Clear
6:35 PM 64.4 °F 53.6 °F 68% 30.08 in 10.0 mi ESE 4.6 mph - N/A   Clear
6:55 PM 62.6 °F 55.4 °F 77% 30.08 in 10.0 mi SE 3.5 mph - N/A   Clear
7:15 PM 62.6 °F 55.4 °F 77% 30.08 in 10.0 mi SE 3.5 mph - N/A   Clear
7:35 PM 62.6 °F 55.4 °F 77% 30.09 in 10.0 mi Calm Calm - N/A   Clear
8:15 PM 60.8 °F 55.4 °F 82% 30.10 in 10.0 mi Calm Calm - N/A   Clear
8:55 PM 57.2 °F 53.6 °F 88% 30.11 in 10.0 mi Calm Calm - N/A   Clear
9:15 PM 57.2 °F 53.6 °F 88% 30.11 in 10.0 mi Calm Calm - N/A   Clear
9:35 PM 57.2 °F 55.4 °F 94% 30.10 in 10.0 mi Calm Calm - N/A   Clear
9:55 PM 57.2 °F 55.4 °F 94% 30.10 in 10.0 mi Calm Calm - N/A   Clear
10:15 PM 55.4 °F 55.4 °F 100% 30.10 in 10.0 mi East 3.5 mph - N/A   Clear
10:35 PM 53.6 °F 53.6 °F 100% 30.09 in 10.0 mi Calm Calm - N/A   Clear
10:55 PM 53.6 °F 53.6 °F 100% 30.09 in 10.0 mi East 3.5 mph - N/A   Clear
11:15 PM 53.6 °F 53.6 °F 100% 30.08 in 10.0 mi Calm Calm - N/A   Clear
11:55 PM 53.6 °F 53.6 °F 100% 30.08 in 10.0 mi Calm Calm - N/A   Clear